Location: Unspecified
(0.0000°N, 0.0000°E)
Time: 01:47:32
(UTC+00:00)

Tiros 1 despin weight - Visible Passes

Search period start: 27 April 2015 00:00
Search period end: 07 May 2015 00:00
Orbit: 598 x 648 km, 48.2° (Epoch: 26 April)

Date Brightness Start Highest point End Pass type
(mag) Time Alt. Az. Time Alt. Az. Time Alt. Az.
27 Apr ? 04:45:45 10° S 04:49:36 28° SE 04:53:34 10° ENE visible
27 Apr ? 18:38:18 10° WSW 18:40:28 13° SW 18:42:25 10° SSW visible
28 Apr ? 05:03:29 12° SW 05:07:42 80° SE 05:12:20 10° NE visible
29 Apr ? 03:44:27 17° SE 03:44:27 17° SE 03:47:17 10° E visible
29 Apr ? 05:21:40 10° WSW 05:25:48 35° NW 05:30:00 10° NNE visible
30 Apr ? 04:02:35 46° ESE 04:02:35 46° ESE 04:06:47 10° NE visible
01 May ? 04:20:38 58° NW 04:20:38 58° NW 04:24:57 10° NNE visible
02 May ? 04:38:36 21° NW 04:38:36 21° NW 04:41:58 10° N visible
03 May ? 03:19:15 12° NE 03:19:15 12° NE 03:19:37 10° NE visible
04 May ? 03:37:01 11° NNE 03:37:01 11° NNE 03:37:14 10° NNE visible
